| time (UTC) | temp F | wind direction | speed MPH | gust MPH | rain 1hr in | rain 24hr in | rain mn in | humidity % | barometer mb |
| 20260506172255 | 57 | 288 | 0.0 | 0.0 | 0.06 | 0.29 | 0.28 | 95 | 1004.8 |
| 20260506171746 | 57 | 28 | 0.0 | 0.0 | 0.07 | 0.29 | 0.28 | 95 | 1004.8 |
| 20260506171237 | 57 | 25 | 0.0 | 0.0 | 0.07 | 0.28 | 0.27 | 95 | 1004.8 |
| 20260506170729 | 57 | 54 | 0.0 | 0.0 | 0.07 | 0.28 | 0.27 | 95 | 1004.8 |
| 20260506170242 | 56 | 126 | 0.0 | 0.0 | 0.06 | 0.27 | 0.26 | 95 | 1004.7 |
| 20260506165736 | 56 | 126 | 0.0 | 0.0 | 0.07 | 0.27 | 0.26 | 95 | 1004.7 |
| 20260506165307 | 56 | 126 | 0.0 | 0.0 | 0.06 | 0.26 | 0.25 | 95 | 1004.6 |
| 20260506164737 | 56 | 126 | 0.0 | 0.0 | 0.07 | 0.26 | 0.25 | 95 | 1005.1 |
| 20260506164229 | 56 | 126 | 0.0 | 0.0 | 0.08 | 0.26 | 0.25 | 95 | 1005.0 |
| 20260506163801 | 56 | 126 | 0.0 | 0.0 | 0.07 | 0.25 | 0.24 | 95 | 1005.0 |
| 20260506163233 | 55 | 126 | 0.0 | 0.0 | 0.07 | 0.25 | 0.24 | 95 | 1005.1 |
| 20260506162807 | 55 | 126 | 0.0 | 0.0 | 0.07 | 0.24 | 0.23 | 95 | 1005.2 |
| 20260506162237 | 55 | 126 | 0.0 | 0.0 | 0.06 | 0.23 | 0.22 | 95 | 1005.5 |
| 20260506161728 | 55 | 126 | 0.0 | 0.0 | 0.06 | 0.22 | 0.21 | 95 | 1005.4 |
| 20260506161241 | 55 | 126 | 0.0 | 0.0 | 0.06 | 0.21 | 0.20 | 95 | 1005.5 |
| 20260506160734 | 55 | 126 | 0.0 | 0.0 | 0.06 | 0.21 | 0.20 | 94 | 1005.4 |
| 20260506160246 | 55 | 126 | 0.0 | 0.0 | 0.07 | 0.21 | 0.20 | 94 | 1005.4 |
| 20260506155737 | 55 | 126 | 0.0 | 0.0 | 0.06 | 0.20 | 0.19 | 94 | 1005.6 |
| 20260506155247 | 55 | 235 | 0.0 | 0.0 | 0.07 | 0.20 | 0.19 | 94 | 1005.7 |
| 20260506154740 | 55 | 235 | 0.0 | 0.0 | 0.06 | 0.19 | 0.18 | 94 | 1005.7 |
| 20260506154232 | 55 | 235 | 0.0 | 0.0 | 0.06 | 0.18 | 0.17 | 94 | 1005.8 |
| 20260506153801 | 54 | 288 | 0.0 | 0.0 | 0.06 | 0.18 | 0.17 | 94 | 1006.0 |
| 20260506153252 | 54 | 288 | 0.0 | 0.0 | 0.07 | 0.18 | 0.17 | 94 | 1006.1 |
| 20260506152742 | 54 | 288 | 0.0 | 0.0 | 0.07 | 0.17 | 0.16 | 94 | 1006.2 |
| 20260506152235 | 54 | 288 | 0.0 | 0.0 | 0.08 | 0.17 | 0.16 | 94 | 1006.2 |
| 20260506151744 | 54 | 288 | 0.0 | 0.0 | 0.07 | 0.16 | 0.15 | 94 | 1006.2 |
| 20260506151236 | 54 | 288 | 0.0 | 0.0 | 0.08 | 0.15 | 0.14 | 94 | 1006.3 |
| 20260506150729 | 54 | 288 | 0.0 | 0.0 | 0.09 | 0.15 | 0.14 | 94 | 1006.4 |
| 20260506150241 | 54 | 288 | 0.0 | 0.0 | 0.09 | 0.14 | 0.13 | 94 | 1006.3 |
| 20260506145734 | 54 | 288 | 0.0 | 0.0 | 0.09 | 0.14 | 0.13 | 94 | 1006.3 |
| 20260506145245 | 54 | 288 | 0.0 | 0.0 | 0.08 | 0.13 | 0.12 | 94 | 1006.5 |
| 20260506144737 | 54 | 288 | 0.0 | 0.0 | 0.09 | 0.13 | 0.12 | 94 | 1006.6 |
| 20260506144230 | 54 | 288 | 0.0 | 0.0 | 0.08 | 0.12 | 0.11 | 94 | 1006.6 |
| 20260506143743 | 54 | 288 | 0.0 | 0.0 | 0.08 | 0.12 | 0.11 | 93 | 1006.7 |
| 20260506143256 | 54 | 288 | 0.0 | 0.0 | 0.07 | 0.11 | 0.10 | 93 | 1006.7 |
| 20260506142728 | 54 | 288 | 0.0 | 0.0 | 0.06 | 0.10 | 0.09 | 94 | 1007.0 |
| 20260506142241 | 54 | 288 | 0.0 | 0.0 | 0.05 | 0.09 | 0.08 | 93 | 1007.0 |
| 20260506141733 | 54 | 288 | 0.0 | 0.0 | 0.04 | 0.08 | 0.07 | 93 | 1007.1 |
| 20260506141245 | 54 | 288 | 0.0 | 0.0 | 0.04 | 0.07 | 0.06 | 93 | 1007.0 |
| 20260506140738 | 54 | 288 | 0.0 | 0.0 | 0.03 | 0.06 | 0.05 | 93 | 1007.0 |
| 20260506140251 | 54 | 288 | 0.0 | 0.0 | 0.02 | 0.05 | 0.04 | 93 | 1006.9 |
| 20260506135803 | 54 | 288 | 0.0 | 0.0 | 0.03 | 0.05 | 0.04 | 93 | 1006.9 |
| 20260506135233 | 54 | 288 | 0.0 | 0.0 | 0.03 | 0.05 | 0.04 | 93 | 1007.0 |
| 20260506134802 | 54 | 288 | 0.0 | 0.0 | 0.02 | 0.04 | 0.03 | 93 | 1007.0 |
| 20260506134234 | 54 | 288 | 0.0 | 0.0 | 0.02 | 0.04 | 0.03 | 93 | 1006.8 |
| 20260506133745 | 54 | 288 | 0.0 | 0.0 | 0.02 | 0.04 | 0.03 | 93 | 1006.8 |
| 20260506133237 | 54 | 288 | 0.0 | 0.0 | 0.02 | 0.04 | 0.03 | 93 | 1006.8 |
| 20260506132728 | 54 | 288 | 0.0 | 0.0 | 0.03 | 0.04 | 0.03 | 92 | 1006.7 |
| 20260506132239 | 54 | 288 | 0.0 | 0.0 | 0.03 | 0.04 | 0.03 | 92 | 1006.6 |
| 20260506131732 | 54 | 288 | 0.0 | 0.0 | 0.03 | 0.04 | 0.03 | 92 | 1006.7 |
| 20260506131245 | 54 | 288 | 0.0 | 0.0 | 0.02 | 0.03 | 0.02 | 92 | 1006.8 |
| 20260506130737 | 54 | 219 | 0.0 | 0.0 | 0.02 | 0.03 | 0.02 | 92 | 1006.5 |
| 20260506130251 | 54 | 291 | 0.0 | 0.0 | 0.02 | 0.03 | 0.02 | 92 | 1006.6 |
| 20260506125743 | 54 | 289 | 0.0 | 0.0 | 0.01 | 0.02 | 0.01 | 91 | 1006.6 |
| 20260506125236 | 54 | 283 | 0.0 | 0.0 | 0.01 | 0.02 | 0.01 | 91 | 1006.8 |
| 20260506124727 | 54 | 249 | 0.0 | 0.0 | 0.01 | 0.02 | 0.01 | 91 | 1006.8 |
| 20260506124240 | 54 | 249 | 0.0 | 0.0 | 0.01 | 0.02 | 0.01 | 91 | 1006.8 |
| 20260506123753 | 54 | 249 | 0.0 | 0.0 | 0.01 | 0.02 | 0.01 | 91 | 1007.1 |
| 20260506123243 | 54 | 16 | 0.0 | 0.0 | 0.01 | 0.02 | 0.01 | 90 | 1006.8 |
| 20260506122736 | 54 | 126 | 0.0 | 0.0 | 0.00 | 0.01 | 0.00 | 90 | 1007.3 |
| 20260506122245 | 54 | 126 | 0.0 | 0.0 | 0.00 | 0.01 | 0.00 | 90 | 1007.3 |
| 20260506121739 | 54 | 89 | 0.0 | 0.0 | 0.00 | 0.01 | 0.00 | 90 | 1007.4 |
| 20260506121230 | 54 | 114 | 0.0 | 0.0 | 0.00 | 0.01 | 0.00 | 90 | 1007.4 |
| 20260506120742 | 54 | 262 | 0.0 | 1.0 | 0.00 | 0.01 | 0.00 | 90 | 1007.7 |
| 20260506120234 | 54 | 262 | 0.0 | 1.0 | 0.00 | 0.01 | 0.00 | 90 | 1007.5 |
| 20260506115727 | 54 | 262 | 0.0 | 1.0 | 0.00 | 0.01 | 0.00 | 90 | 1007.5 |
| 20260506115254 | 54 | 262 | 1.0 | 1.0 | 0.00 | 0.01 | 0.00 | 90 | 1007.6 |
| 20260506114747 | 54 | 260 | 1.0 | 2.0 | 0.00 | 0.01 | 0.00 | 90 | 1007.3 |
| 20260506114238 | 54 | 258 | 1.0 | 2.0 | 0.00 | 0.01 | 0.00 | 90 | 1007.7 |
| 20260506113728 | 54 | 124 | 0.0 | 1.0 | 0.00 | 0.01 | 0.00 | 90 | 1007.5 |
| 20260506113241 | 54 | 124 | 1.0 | 1.0 | 0.00 | 0.01 | 0.00 | 90 | 1007.1 |
| 20260506112732 | 54 | 243 | 0.0 | 1.0 | 0.00 | 0.01 | 0.00 | 90 | 1007.1 |
| 20260506112306 | 54 | 243 | 0.0 | 1.0 | 0.00 | 0.01 | 0.00 | 90 | 1007.0 |
| 20260506111734 | 54 | 243 | 0.0 | 1.0 | 0.00 | 0.01 | 0.00 | 90 | 1006.9 |
| 20260506111307 | 54 | 243 | 0.0 | 2.0 | 0.00 | 0.01 | 0.00 | 90 | 1007.1 |
| 20260506110738 | 53 | 187 | 2.0 | 4.0 | 0.00 | 0.01 | 0.00 | 90 | 1006.9 |
| 20260506110231 | 53 | 312 | 2.0 | 4.0 | 0.00 | 0.01 | 0.00 | 90 | 1006.7 |
| 20260506105743 | 53 | 303 | 0.0 | 0.0 | 0.00 | 0.01 | 0.00 | 89 | 1006.9 |
| 20260506105236 | 53 | 216 | 0.0 | 0.0 | 0.00 | 0.01 | 0.00 | 90 | 1006.9 |
| 20260506104731 | 53 | 216 | 0.0 | 0.0 | 0.00 | 0.01 | 0.00 | 89 | 1006.9 |
| 20260506104304 | 53 | 216 | 0.0 | 0.0 | 0.00 | 0.01 | 0.00 | 89 | 1006.9 |
| 20260506103735 | 53 | 229 | 0.0 | 0.0 | 0.00 | 0.01 | 0.00 | 89 | 1006.8 |
| 20260506103246 | 53 | 188 | 0.0 | 0.0 | 0.00 | 0.01 | 0.00 | 89 | 1006.9 |
| 20260506102738 | 53 | 188 | 0.0 | 0.0 | 0.00 | 0.01 | 0.00 | 89 | 1006.9 |
| 20260506102229 | 53 | 170 | 0.0 | 0.0 | 0.00 | 0.01 | 0.00 | 89 | 1006.6 |
| 20260506101742 | 53 | 170 | 0.0 | 0.0 | 0.00 | 0.01 | 0.00 | 89 | 1006.5 |
| 20260506101233 | 53 | 181 | 0.0 | 0.0 | 0.00 | 0.01 | 0.00 | 89 | 1006.5 |
| 20260506100801 | 53 | 152 | 0.0 | 0.0 | 0.00 | 0.01 | 0.00 | 88 | 1006.5 |
| 20260506100232 | 53 | 152 | 0.0 | 0.0 | 0.00 | 0.01 | 0.00 | 89 | 1006.6 |
| 20260506095744 | 53 | 227 | 0.0 | 0.0 | 0.00 | 0.01 | 0.00 | 88 | 1006.6 |
| 20260506095236 | 53 | 227 | 0.0 | 0.0 | 0.00 | 0.01 | 0.00 | 88 | 1006.4 |
| 20260506094727 | 53 | 227 | 0.0 | 0.0 | 0.00 | 0.01 | 0.00 | 88 | 1006.5 |
| 20260506094239 | 53 | 227 | 0.0 | 0.0 | 0.00 | 0.01 | 0.00 | 88 | 1006.5 |
| 20260506093730 | 53 | 227 | 0.0 | 0.0 | 0.00 | 0.01 | 0.00 | 88 | 1006.5 |
| 20260506093243 | 53 | 227 | 0.0 | 0.0 | 0.00 | 0.01 | 0.00 | 88 | 1006.4 |
| 20260506092734 | 53 | 227 | 0.0 | 0.0 | 0.00 | 0.01 | 0.00 | 88 | 1006.4 |
| 20260506092247 | 53 | 227 | 0.0 | 0.0 | 0.00 | 0.01 | 0.00 | 88 | 1006.4 |
| 20260506091739 | 53 | 227 | 0.0 | 0.0 | 0.00 | 0.01 | 0.00 | 88 | 1006.4 |
| 20260506091250 | 53 | 227 | 0.0 | 0.0 | 0.00 | 0.01 | 0.00 | 87 | 1006.4 |
| 20260506090741 | 53 | 227 | 0.0 | 0.0 | 0.00 | 0.01 | 0.00 | 87 | 1006.6 |
| 20260506090234 | 53 | 227 | 0.0 | 0.0 | 0.00 | 0.01 | 0.00 | 87 | 1006.5 |
| 20260506085804 | 53 | 227 | 0.0 | 0.0 | 0.00 | 0.01 | 0.00 | 87 | 1006.6 |
| 20260506085236 | 53 | 227 | 0.0 | 0.0 | 0.00 | 0.01 | 0.00 | 87 | 1006.7 |
| 20260506084745 | 53 | 227 | 0.0 | 0.0 | 0.00 | 0.01 | 0.00 | 87 | 1006.8 |
| 20260506084237 | 53 | 227 | 0.0 | 0.0 | 0.00 | 0.01 | 0.00 | 87 | 1006.8 |
| 20260506083730 | 54 | 227 | 0.0 | 0.0 | 0.00 | 0.01 | 0.00 | 87 | 1006.9 |
| 20260506083243 | 54 | 227 | 0.0 | 0.0 | 0.00 | 0.01 | 0.00 | 87 | 1006.9 |
| 20260506082737 | 54 | 227 | 0.0 | 0.0 | 0.00 | 0.01 | 0.00 | 87 | 1007.0 |
| 20260506082230 | 54 | 227 | 0.0 | 0.0 | 0.00 | 0.01 | 0.00 | 87 | 1007.1 |
| 20260506081743 | 54 | 227 | 0.0 | 0.0 | 0.00 | 0.01 | 0.00 | 87 | 1007.2 |
| 20260506081233 | 54 | 227 | 0.0 | 0.0 | 0.00 | 0.01 | 0.00 | 87 | 1007.1 |
| 20260506080744 | 54 | 227 | 0.0 | 0.0 | 0.00 | 0.01 | 0.00 | 86 | 1007.1 |
| 20260506080235 | 54 | 227 | 0.0 | 0.0 | 0.00 | 0.01 | 0.00 | 86 | 1007.2 |
| 20260506073245 | 55 | 227 | 0.0 | 0.0 | 0.00 | 0.01 | 0.00 | 86 | 1007.4 |
| 20260506072737 | 55 | 227 | 0.0 | 0.0 | 0.00 | 0.01 | 0.00 | 86 | 1007.7 |
| 20260506072248 | 55 | 227 | 0.0 | 0.0 | 0.00 | 0.01 | 0.00 | 85 | 1007.8 |
| 20260506071739 | 55 | 227 | 0.0 | 0.0 | 0.00 | 0.01 | 0.00 | 85 | 1007.8 |
| 20260506071233 | 55 | 227 | 0.0 | 0.0 | 0.00 | 0.01 | 0.00 | 85 | 1007.7 |
| 20260506070805 | 55 | 227 | 0.0 | 0.0 | 0.00 | 0.01 | 0.00 | 85 | 1007.8 |
| 20260506070256 | 55 | 227 | 0.0 | 0.0 | 0.00 | 0.01 | 0.00 | 84 | 1007.7 |
| 20260506062229 | 56 | 227 | 0.0 | 1.0 | 0.00 | 0.01 | 0.00 | 84 | 1008.2 |
| 20260506061739 | 56 | 227 | 1.0 | 1.0 | 0.00 | 0.01 | 0.00 | 83 | 1008.3 |
| 20260506061231 | 56 | 227 | 0.0 | 1.0 | 0.00 | 0.01 | 0.00 | 84 | 1008.4 |
| 20260506060738 | 56 | 227 | 0.0 | 2.0 | 0.00 | 0.01 | 0.00 | 85 | 1008.3 |
| 20260506060230 | 56 | 227 | 0.0 | 2.0 | 0.00 | 0.01 | 0.00 | 85 | 1008.3 |
| 20260506051230 | 57 | 243 | 1.0 | 2.0 | 0.00 | 0.01 | 0.00 | 81 | 1008.6 |
| 20260506050742 | 57 | 243 | 0.0 | 2.0 | 0.00 | 0.01 | 0.00 | 80 | 1008.5 |
| 20260506050235 | 57 | 243 | 1.0 | 2.0 | 0.00 | 0.01 | 0.00 | 80 | 1008.4 |
| 20260506044727 | 58 | 243 | 1.0 | 2.0 | 0.00 | 0.01 | 0.00 | 80 | 1008.5 |
| 20260506044239 | 58 | 197 | 0.0 | 1.0 | 0.00 | 0.01 | 0.00 | 78 | 1008.5 |
| 20260506043731 | 58 | 197 | 1.0 | 2.0 | 0.00 | 0.01 | 0.00 | 77 | 1008.4 |
| 20260506043243 | 59 | 197 | 1.0 | 3.0 | 0.00 | 0.01 | 0.00 | 78 | 1008.4 |
| 20260506042735 | 59 | 260 | 2.0 | 3.0 | 0.00 | 0.01 | 0.00 | 75 | 1008.2 |
| 20260506042246 | 59 | 359 | 1.0 | 5.0 | 0.00 | 0.01 | 0.00 | 75 | 1008.2 |
| 20260506041739 | 59 | 120 | 1.0 | 5.0 | 0.00 | 0.01 | 0.00 | 76 | 1008.0 |
| 20260506041230 | 59 | 280 | 2.0 | 4.0 | 0.00 | 0.01 | 0.01 | 75 | 1008.1 |
| 20260506040743 | 59 | 280 | 3.0 | 4.0 | 0.00 | 0.01 | 0.01 | 76 | 1008.2 |
| 20260506040234 | 59 | 268 | 2.0 | 6.0 | 0.00 | 0.01 | 0.01 | 77 | 1008.0 |
| 20260506035745 | 60 | 272 | 1.0 | 9.0 | 0.00 | 0.01 | 0.01 | 75 | 1008.0 |
| 20260506035236 | 60 | 297 | 2.0 | 9.0 | 0.00 | 0.01 | 0.01 | 77 | 1008.0 |
| 20260506034728 | 60 | 257 | 2.0 | 6.0 | 0.00 | 0.01 | 0.01 | 78 | 1007.7 |
| 20260506034237 | 60 | 170 | 2.0 | 7.0 | 0.00 | 0.01 | 0.01 | 76 | 1007.9 |
| 20260506033728 | 60 | 96 | 2.0 | 7.0 | 0.01 | 0.01 | 0.01 | 79 | 1008.2 |
| 20260506033240 | 60 | 224 | 2.0 | 4.0 | 0.01 | 0.01 | 0.01 | 81 | 1008.0 |
| 20260506032731 | 60 | 121 | 2.0 | 4.0 | 0.01 | 0.01 | 0.01 | 84 | 1007.9 |
| 20260506032305 | 60 | 96 | 2.0 | 4.0 | 0.01 | 0.01 | 0.01 | 87 | 1007.9 |
| 20260506031733 | 60 | 349 | 0.0 | 0.0 | 0.01 | 0.01 | 0.01 | 89 | 1007.9 |
| 20260506031243 | 60 | 319 | 0.0 | 0.0 | 0.01 | 0.01 | 0.01 | 89 | 1007.8 |
| 20260506030751 | 61 | 319 | 0.0 | 0.0 | 0.01 | 0.01 | 0.01 | 89 | 1007.8 |
| 20260506030302 | 61 | 344 | 0.0 | 0.0 | 0.01 | 0.01 | 0.01 | 88 | 1007.8 |
| 20260506025732 | 61 | 303 | 0.0 | 0.0 | 0.01 | 0.01 | 0.01 | 87 | 1007.7 |
| 20260506025245 | 62 | 303 | 0.0 | 0.0 | 0.01 | 0.01 | 0.01 | 86 | 1007.7 |
| 20260506024738 | 62 | 295 | 0.0 | 0.0 | 0.01 | 0.01 | 0.01 | 84 | 1007.9 |
| 20260506024230 | 62 | 128 | 0.0 | 2.0 | 0.01 | 0.01 | 0.01 | 83 | 1007.9 |
| 20260506023741 | 62 | 229 | 0.0 | 3.0 | 0.00 | 0.00 | 0.00 | 82 | 1008.3 |
| 20260506023231 | 62 | 284 | 2.0 | 4.0 | 0.00 | 0.00 | 0.00 | 82 | 1007.8 |
| 20260506022744 | 63 | 49 | 2.0 | 4.0 | 0.00 | 0.00 | 0.00 | 82 | 1007.6 |
| 20260506022236 | 63 | 336 | 0.0 | 0.0 | 0.00 | 0.00 | 0.00 | 81 | 1007.5 |
| 20260506021807 | 63 | 336 | 0.0 | 0.0 | 0.00 | 0.00 | 0.00 | 80 | 1007.3 |
| 20260506021237 | 63 | 336 | 0.0 | 0.0 | 0.00 | 0.00 | 0.00 | 79 | 1007.3 |
| 20260506020742 | 63 | 285 | 0.0 | 0.0 | 0.00 | 0.00 | 0.00 | 78 | 1007.3 |
| 20260506020254 | 64 | 285 | 0.0 | 0.0 | 0.00 | 0.00 | 0.00 | 78 | 1007.3 |
| 20260506015743 | 64 | 237 | 0.0 | 0.0 | 0.00 | 0.00 | 0.00 | 76 | 1007.1 |
| 20260506015235 | 64 | 281 | 0.0 | 0.0 | 0.00 | 0.00 | 0.00 | 75 | 1007.5 |
| 20260506014746 | 65 | 211 | 0.0 | 0.0 | 0.00 | 0.00 | 0.00 | 74 | 1007.3 |
| 20260506014239 | 65 | 211 | 0.0 | 0.0 | 0.00 | 0.00 | 0.00 | 72 | 1007.3 |
| 20260506013730 | 65 | 216 | 0.0 | 0.0 | 0.00 | 0.00 | 0.00 | 71 | 1007.2 |
| 20260506013244 | 66 | 146 | 0.0 | 0.0 | 0.00 | 0.00 | 0.00 | 69 | 1007.0 |
| 20260506012737 | 66 | 211 | 0.0 | 2.0 | 0.00 | 0.00 | 0.00 | 67 | 1007.0 |
| 20260506012308 | 67 | 211 | 0.0 | 2.0 | 0.00 | 0.00 | 0.00 | 67 | 1006.9 |
| 20260506011737 | 68 | 250 | 0.0 | 2.0 | 0.00 | 0.00 | 0.00 | 63 | 1006.9 |
| 20260506011247 | 68 | 218 | 0.0 | 2.0 | 0.00 | 0.00 | 0.00 | 62 | 1006.9 |
| 20260506010740 | 69 | 201 | 1.0 | 3.0 | 0.00 | 0.00 | 0.00 | 59 | 1006.8 |
| 20260506010234 | 69 | 111 | 1.0 | 3.0 | 0.00 | 0.00 | 0.00 | 57 | 1006.7 |
| 20260506005745 | 70 | 195 | 0.0 | 5.0 | 0.00 | 0.00 | 0.00 | 58 | 1006.8 |
| 20260506005236 | 70 | 29 | 2.0 | 5.0 | 0.00 | 0.00 | 0.00 | 55 | 1006.6 |
| 20260506004747 | 70 | 286 | 1.0 | 3.0 | 0.00 | 0.00 | 0.00 | 56 | 1006.7 |
| 20260506004239 | 70 | 206 | 1.0 | 6.0 | 0.00 | 0.00 | 0.00 | 56 | 1006.6 |
| 20260506003732 | 70 | 203 | 1.0 | 9.0 | 0.00 | 0.00 | 0.00 | 54 | 1006.6 |
| 20260506003259 | 70 | 169 | 2.0 | 9.0 | 0.00 | 0.00 | 0.00 | 53 | 1006.5 |
| 20260506002730 | 70 | 95 | 1.0 | 7.0 | 0.00 | 0.00 | 0.00 | 53 | 1006.2 |
| 20260506002242 | 70 | 87 | 1.0 | 7.0 | 0.00 | 0.00 | 0.00 | 54 | 1006.4 |
| 20260506001754 | 70 | 348 | 3.0 | 6.0 | 0.00 | 0.00 | 0.00 | 55 | 1006.5 |
| 20260506001245 | 70 | 306 | 1.0 | 4.0 | 0.00 | 0.00 | 0.00 | 56 | 1006.3 |
| 20260506000736 | 70 | 331 | 2.0 | 5.0 | 0.00 | 0.00 | 0.00 | 54 | 1006.0 |
| 20260506000230 | 70 | 309 | 2.0 | 3.0 | 0.00 | 0.00 | 0.00 | 55 | 1005.9 |
| 20260505235743 | 70 | 288 | 0.0 | 4.0 | 0.00 | 0.00 | 0.00 | 56 | 1005.9 |
| 20260505235234 | 70 | 312 | 1.0 | 4.0 | 0.00 | 0.00 | 0.00 | 54 | 1005.7 |
| 20260505234727 | 70 | 320 | 1.0 | 4.0 | 0.00 | 0.00 | 0.00 | 55 | 1005.7 |
| 20260505234241 | 70 | 305 | 2.0 | 3.0 | 0.00 | 0.00 | 0.00 | 55 | 1005.6 |
| 20260505233732 | 70 | 201 | 1.0 | 3.0 | 0.00 | 0.00 | 0.00 | 55 | 1005.7 |
| 20260505233244 | 70 | 251 | 1.0 | 3.0 | 0.00 | 0.00 | 0.00 | 56 | 1005.7 |
| 20260505232737 | 70 | 149 | 1.0 | 4.0 | 0.00 | 0.00 | 0.00 | 56 | 1005.7 |
| 20260505232229 | 70 | 191 | 2.0 | 4.0 | 0.00 | 0.00 | 0.00 | 55 | 1005.7 |
| 20260505231740 | 70 | 147 | 2.0 | 5.0 | 0.00 | 0.00 | 0.00 | 56 | 1005.6 |
| 20260505231231 | 70 | 136 | 2.0 | 5.0 | 0.00 | 0.00 | 0.00 | 56 | 1005.5 |
| 20260505230743 | 69 | 135 | 2.0 | 3.0 | 0.00 | 0.00 | 0.00 | 57 | 1005.4 |
| 20260505230235 | 69 | 156 | 1.0 | 2.0 | 0.00 | 0.00 | 0.00 | 57 | 1005.4 |
| 20260505225747 | 69 | 44 | 1.0 | 7.0 | 0.00 | 0.00 | 0.00 | 59 | 1005.5 |
| 20260505225238 | 69 | 286 | 2.0 | 9.0 | 0.00 | 0.00 | 0.00 | 60 | 1005.5 |
| 20260505224730 | 69 | 145 | 4.0 | 9.0 | 0.00 | 0.00 | 0.00 | 60 | 1005.6 |
| 20260505224241 | 69 | 285 | 2.0 | 11.0 | 0.00 | 0.00 | 0.00 | 63 | 1005.4 |
| 20260505223753 | 68 | 320 | 6.0 | 12.0 | 0.00 | 0.00 | 0.00 | 62 | 1005.6 |
| 20260505223244 | 68 | 264 | 2.0 | 9.0 | 0.00 | 0.00 | 0.00 | 64 | 1005.5 |
| 20260505222736 | 68 | 293 | 4.0 | 9.0 | 0.00 | 0.00 | 0.00 | 63 | 1005.4 |
| 20260505222227 | 68 | 312 | 5.0 | 13.0 | 0.00 | 0.00 | 0.00 | 65 | 1005.3 |
| 20260505221735 | 67 | 284 | 3.0 | 13.0 | 0.00 | 0.00 | 0.00 | 68 | 1005.4 |
| 20260505221307 | 67 | 282 | 6.0 | 12.0 | 0.00 | 0.00 | 0.00 | 68 | 1005.7 |
| 20260505220737 | 67 | 281 | 8.0 | 23.0 | 0.00 | 0.00 | 0.00 | 69 | 1005.7 |
| 20260505220229 | 66 | 281 | 10.0 | 18.0 | 0.00 | 0.00 | 0.00 | 71 | 1005.7 |
| 20260505215738 | 66 | 328 | 7.0 | 20.0 | 0.00 | 0.00 | 0.00 | 72 | 1005.6 |
| 20260505215251 | 66 | 313 | 7.0 | 24.0 | 0.00 | 0.00 | 0.00 | 72 | 1005.8 |
| 20260505214742 | 67 | 298 | 11.0 | 24.0 | 0.00 | 0.00 | 0.00 | 69 | 1005.9 |
| 20260505214233 | 69 | 297 | 7.0 | 20.0 | 0.00 | 0.00 | 0.00 | 64 | 1005.3 |
| 20260505213742 | 71 | 343 | 9.0 | 18.0 | 0.00 | 0.00 | 0.00 | 58 | 1005.1 |
| 20260505213234 | 73 | 329 | 9.0 | 18.0 | 0.00 | 0.00 | 0.00 | 52 | 1004.8 |
| 20260505212745 | 76 | 331 | 6.0 | 14.0 | 0.00 | 0.00 | 0.00 | 45 | 1004.6 |
| 20260505212235 | 79 | 337 | 3.0 | 6.0 | 0.00 | 0.00 | 0.00 | 39 | 1004.2 |
| 20260505211728 | 80 | 45 | 2.0 | 6.0 | 0.00 | 0.00 | 0.00 | 26 | 1004.0 |
| 20260505211240 | 81 | 150 | 1.0 | 11.0 | 0.00 | 0.00 | 0.00 | 25 | 1003.6 |
| 20260505210731 | 81 | 302 | 2.0 | 11.0 | 0.00 | 0.00 | 0.00 | 24 | 1003.6 |
| 20260505210243 | 81 | 131 | 1.0 | 6.0 | 0.00 | 0.00 | 0.00 | 25 | 1003.5 |
| 20260505205756 | 81 | 245 | 3.0 | 9.0 | 0.00 | 0.00 | 0.00 | 23 | 1003.3 |
| 20260505205245 | 81 | 248 | 3.0 | 5.0 | 0.00 | 0.00 | 0.00 | 23 | 1003.2 |
| 20260505204736 | 81 | 359 | 2.0 | 6.0 | 0.00 | 0.00 | 0.00 | 23 | 1003.1 |
| 20260505204227 | 81 | 263 | 2.0 | 5.0 | 0.00 | 0.00 | 0.00 | 23 | 1003.1 |
| 20260505203738 | 81 | 244 | 4.0 | 8.0 | 0.00 | 0.00 | 0.00 | 23 | 1003.1 |
| 20260505203306 | 81 | 168 | 3.0 | 12.0 | 0.00 | 0.00 | 0.00 | 23 | 1003.1 |
| 20260505202736 | 82 | 287 | 4.0 | 12.0 | 0.00 | 0.00 | 0.00 | 23 | 1003.0 |
| 20260505202229 | 82 | 255 | 4.0 | 9.0 | 0.00 | 0.00 | 0.00 | 24 | 1002.9 |
| 20260505201742 | 82 | 228 | 3.0 | 9.0 | 0.00 | 0.00 | 0.00 | 25 | 1002.7 |
| 20260505201234 | 82 | 258 | 1.0 | 9.0 | 0.00 | 0.00 | 0.00 | 26 | 1002.7 |
| 20260505200745 | 82 | 268 | 2.0 | 8.0 | 0.00 | 0.00 | 0.00 | 26 | 1002.8 |
| 20260505200237 | 82 | 298 | 3.0 | 8.0 | 0.00 | 0.00 | 0.00 | 26 | 1003.0 |
| 20260505195729 | 82 | 124 | 2.0 | 8.0 | 0.00 | 0.00 | 0.00 | 26 | 1003.1 |
| 20260505195241 | 82 | 325 | 3.0 | 9.0 | 0.00 | 0.00 | 0.00 | 26 | 1003.2 |
| 20260505194752 | 83 | 238 | 4.0 | 12.0 | 0.00 | 0.00 | 0.00 | 26 | 1003.2 |
| 20260505194241 | 83 | 287 | 5.0 | 12.0 | 0.00 | 0.00 | 0.00 | 27 | 1003.3 |
| 20260505193732 | 83 | 193 | 2.0 | 20.0 | 0.00 | 0.00 | 0.00 | 27 | 1003.0 |
| 20260505193243 | 83 | 256 | 4.0 | 9.0 | 0.00 | 0.00 | 0.00 | 26 | 1003.2 |
| 20260505192807 | 83 | 211 | 6.0 | 10.0 | 0.00 | 0.00 | 0.00 | 26 | 1003.3 |
| 20260505192238 | 83 | 52 | 3.0 | 11.0 | 0.00 | 0.00 | 0.00 | 26 | 1003.2 |
| 20260505191729 | 83 | 299 | 6.0 | 11.0 | 0.00 | 0.00 | 0.00 | 25 | 1003.2 |
| 20260505191239 | 83 | 265 | 3.0 | 8.0 | 0.00 | 0.00 | 0.00 | 29 | 1003.1 |
| 20260505190732 | 83 | 113 | 3.0 | 11.0 | 0.00 | 0.00 | 0.00 | 28 | 1003.1 |
| 20260505190244 | 83 | 139 | 4.0 | 15.0 | 0.00 | 0.00 | 0.00 | 29 | 1003.2 |
| 20260505185756 | 82 | 206 | 5.0 | 15.0 | 0.00 | 0.00 | 0.00 | 28 | 1003.4 |
| 20260505185246 | 82 | 247 | 7.0 | 14.0 | 0.00 | 0.00 | 0.00 | 28 | 1003.6 |
| 20260505184757 | 82 | 119 | 5.0 | 14.0 | 0.00 | 0.00 | 0.00 | 30 | 1003.4 |
| 20260505184229 | 82 | 248 | 5.0 | 13.0 | 0.00 | 0.00 | 0.00 | 28 | 1003.7 |
| 20260505183740 | 82 | 295 | 4.0 | 15.0 | 0.00 | 0.00 | 0.00 | 31 | 1003.5 |
| 20260505183232 | 82 | 294 | 9.0 | 15.0 | 0.00 | 0.00 | 0.00 | 30 | 1003.7 |
| 20260505182745 | 82 | 285 | 7.0 | 13.0 | 0.00 | 0.00 | 0.00 | 30 | 1003.8 |
| 20260505182252 | 82 | 253 | 2.0 | 11.0 | 0.00 | 0.00 | 0.00 | 29 | 1003.7 |
| 20260505181744 | 82 | 131 | 7.0 | 13.0 | 0.00 | 0.00 | 0.00 | 30 | 1003.6 |
| 20260505181237 | 83 | 279 | 6.0 | 13.0 | 0.00 | 0.00 | 0.00 | 31 | 1003.7 |
| 20260505180728 | 82 | 293 | 3.0 | 10.0 | 0.00 | 0.00 | 0.00 | 29 | 1003.6 |
| 20260505180301 | 82 | 246 | 3.0 | 10.0 | 0.00 | 0.00 | 0.00 | 30 | 1003.8 |
| 20260505175733 | 82 | 108 | 4.0 | 13.0 | 0.00 | 0.00 | 0.00 | 29 | 1003.8 |
| 20260505175244 | 82 | 345 | 6.0 | 13.0 | 0.00 | 0.00 | 0.00 | 29 | 1003.8 |
| 20260505174736 | 82 | 125 | 4.0 | 19.0 | 0.00 | 0.00 | 0.00 | 31 | 1003.8 |
| 20260505174228 | 82 | 283 | 4.0 | 17.0 | 0.00 | 0.00 | 0.00 | 29 | 1003.8 |
| 20260505173741 | 82 | 142 | 8.0 | 17.0 | 0.00 | 0.00 | 0.00 | 30 | 1003.7 |
| 20260505173252 | 82 | 172 | 4.0 | 11.0 | 0.00 | 0.00 | 0.00 | 31 | 1003.8 |
| 20260505172744 | 81 | 308 | 6.0 | 11.0 | 0.00 | 0.00 | 0.00 | 31 | 1004.0 |